When you browse on this site, cookies collect data to enhance your experience and personalize the content and advertising you see.
Visit our Privacy Policy to learn more. By continuing to use the site, you agree to this use of cookies and data.
  • In United Kingdom
  • List of Countries
  • For 7 days
  • Water Temperature
  • Satellite Maps
  • Weather Map
  • Weather Widgets
  • user-avatar
    Login

    Hourly Weather Ignashevo

    Today, 24 January, Thursday

    Time Temperature Precipitation Wind Pressure Humidity
    00:00 -17°C° 0 mm 2 mps 751 mmHg 97%
    01:00 -17°C° 0 mm 2 mps 751 mmHg 97%
    02:00 -17°C° 0 mm 2 mps 751 mmHg 97%
    03:00 -18°C° 0 mm 2 mps 751 mmHg 97%
    04:00 -16°C° 0 mm 1 mps 751 mmHg 97%
    05:00 -16°C° 0 mm 1 mps 751 mmHg 97%
    06:00 -16°C° 0 mm 1 mps 751 mmHg 97%
    07:00 -16°C° 0 mm 1 mps 751 mmHg 97%
    08:00 -18°C° 0 mm 2 mps 751 mmHg 96%
    09:00 -17°C° 0 mm 2 mps 751 mmHg 95%
    10:00 -13°C° 0 mm 1 mps 751 mmHg 93%
    11:00 -12°C° 0 mm 1 mps 751 mmHg 92%
    12:00 -11°C° 0 mm 1 mps 752 mmHg 92%
    13:00 -10°C° 0 mm 1 mps 752 mmHg 92%
    14:00 -9°C° 0 mm 1 mps 752 mmHg 93%
    15:00 -9°C° 0 mm 1 mps 752 mmHg 94%
    16:00 -9°C° 0 mm 1 mps 753 mmHg 95%
    17:00 -10°C° 0 mm 1 mps 753 mmHg 96%
    18:00 -10°C° 0 mm 1 mps 754 mmHg 97%
    19:00 -10°C° 0 mm 1 mps 754 mmHg 97%
    20:00 -10°C° 0 mm 1 mps 754 mmHg 97%
    21:00 -11°C° 0 mm 1 mps 755 mmHg 97%
    22:00 -12°C° 0 mm 1 mps 755 mmHg 97%
    23:00 -14°C° 0 mm 1 mps 756 mmHg 97%

    Tomorrow, 25 January, Friday

    Time Temperature Precipitation Wind Pressure Humidity
    00:00 -14°C° 0 mm 1 mps 756 mmHg 97%
    01:00 -15°C° 0 mm 1 mps 757 mmHg 97%
    02:00 -16°C° 0 mm 1 mps 757 mmHg 97%
    03:00 -16°C° 0 mm 1 mps 757 mmHg 96%
    04:00 -16°C° 0 mm 1 mps 757 mmHg 96%
    05:00 -17°C° 0 mm 1 mps 757 mmHg 95%
    06:00 -17°C° 0 mm 1 mps 758 mmHg 95%
    07:00 -17°C° 0 mm 1 mps 758 mmHg 94%
    08:00 -18°C° 0 mm 1 mps 758 mmHg 94%
    09:00 -17°C° 0 mm 1 mps 759 mmHg 92%
    10:00 -15°C° 0 mm 1 mps 759 mmHg 90%
    11:00 -14°C° 0 mm 1 mps 759 mmHg 88%
    12:00 -13°C° 0 mm 1 mps 759 mmHg 88%
    13:00 -12°C° 0 mm 1 mps 759 mmHg 88%
    14:00 -12°C° 0 mm 1 mps 759 mmHg 88%
    15:00 -15°C° 0 mm 2 mps 759 mmHg 89%
    16:00 -16°C° 0 mm 2 mps 758 mmHg 90%
    17:00 -17°C° 0 mm 2 mps 758 mmHg 90%
    18:00 -17°C° 0 mm 2 mps 758 mmHg 89%
    19:00 -16°C° 0 mm 2 mps 758 mmHg 88%
    20:00 -16°C° 0 mm 2 mps 758 mmHg 86%
    21:00 -16°C° 0 mm 2 mps 758 mmHg 85%
    22:00 -17°C° 0 mm 3 mps 757 mmHg 84%
    23:00 -17°C° 0 mm 3 mps 757 mmHg 83%

    Day after tomorrow, 26 January, Saturday

    Time Temperature Precipitation Wind Pressure Humidity
    00:00 -17°C° 0 mm 3 mps 756 mmHg 83%
    01:00 -16°C° 0 mm 3 mps 756 mmHg 83%
    02:00 -16°C° 0 mm 3 mps 755 mmHg 83%
    03:00 -16°C° 0 mm 3 mps 754 mmHg 83%
    04:00 -16°C° 0 mm 3 mps 754 mmHg 83%
    05:00 -16°C° 0 mm 3 mps 753 mmHg 83%
    06:00 -16°C° 0.1 mm 3 mps 752 mmHg 85%
    07:00 -16°C° 0.1 mm 3 mps 751 mmHg 88%
    08:00 -16°C° 0.1 mm 3 mps 751 mmHg 90%
    09:00 -16°C° 0.5 mm 3 mps 750 mmHg 91%
    10:00 -15°C° 0.5 mm 3 mps 750 mmHg 92%
    11:00 -15°C° 0.5 mm 3 mps 749 mmHg 92%
    12:00 -15°C° 0.4 mm 3 mps 748 mmHg 93%
    13:00 -15°C° 0.4 mm 3 mps 748 mmHg 93%
    14:00 -14°C° 0.4 mm 2 mps 747 mmHg 93%
    15:00 -14°C° 0.3 mm 2 mps 746 mmHg 94%
    16:00 -14°C° 0.3 mm 2 mps 746 mmHg 95%
    17:00 -12°C° 0.3 mm 1 mps 745 mmHg 95%
    18:00 -12°C° 0.3 mm 1 mps 745 mmHg 96%
    19:00 -12°C° 0.3 mm 1 mps 745 mmHg 96%
    20:00 -12°C° 0.3 mm 1 mps 744 mmHg 96%
    21:00 -12°C° 0.1 mm 1 mps 744 mmHg 96%
    22:00 -12°C° 0.1 mm 0 mps 744 mmHg 97%
    23:00 -12°C° 0.1 mm 0 mps 744 mmHg 97%

    27 January, Sunday

    Time Temperature Precipitation Wind Pressure Humidity
    00:00 -12°C° 0.1 mm 0 mps 743 mmHg 97%
    01:00 -12°C° 0.1 mm 0 mps 743 mmHg 97%
    02:00 -12°C° 0.1 mm 1 mps 743 mmHg 97%
    03:00 -13°C° 0 mm 1 mps 743 mmHg 97%
    04:00 -13°C° 0 mm 1 mps 743 mmHg 97%
    05:00 -13°C° 0 mm 1 mps 742 mmHg 97%
    06:00 -14°C° 0 mm 1 mps 742 mmHg 97%
    07:00 -14°C° 0 mm 1 mps 742 mmHg 97%
    08:00 -16°C° 0 mm 2 mps 742 mmHg 97%
    09:00 -16°C° 0 mm 2 mps 743 mmHg 96%
    10:00 -15°C° 0 mm 2 mps 743 mmHg 95%
    11:00 -15°C° 0 mm 2 mps 743 mmHg 94%
    12:00 -15°C° 0 mm 2 mps 743 mmHg 93%
    13:00 -14°C° 0 mm 2 mps 743 mmHg 91%
    14:00 -14°C° 0 mm 2 mps 743 mmHg 90%
    15:00 -15°C° 0 mm 2 mps 743 mmHg 92%
    16:00 -15°C° 0 mm 2 mps 744 mmHg 93%
    17:00 -16°C° 0 mm 2 mps 744 mmHg 95%
    18:00 -17°C° 0 mm 2 mps 744 mmHg 96%
    19:00 -18°C° 0 mm 2 mps 745 mmHg 96%
    20:00 -18°C° 0 mm 2 mps 745 mmHg 97%
    21:00 -19°C° 0 mm 2 mps 745 mmHg 98%
    22:00 -20°C° 0 mm 2 mps 746 mmHg 98%
    23:00 -20°C° 0 mm 2 mps 746 mmHg 98%

    28 January, Monday

    Time Temperature Precipitation Wind Pressure Humidity
    00:00 -19°C° 0 mm 1 mps 746 mmHg 98%
    01:00 -19°C° 0 mm 1 mps 747 mmHg 99%
    02:00 -19°C° 0 mm 1 mps 747 mmHg 99%
    03:00 -20°C° 0 mm 1 mps 748 mmHg 99%
    04:00 -20°C° 0 mm 1 mps 748 mmHg 99%
    05:00 -20°C° 0 mm 1 mps 748 mmHg 99%
    06:00 -21°C° 0 mm 1 mps 748 mmHg 99%
    07:00 -21°C° 0 mm 1 mps 749 mmHg 99%
    08:00 -21°C° 0 mm 0 mps 749 mmHg 99%
    09:00 -20°C° 0 mm 0 mps 749 mmHg 97%
    10:00 -18°C° 0 mm 0 mps 750 mmHg 95%
    11:00 -17°C° 0 mm 0 mps 750 mmHg 93%
    12:00 -16°C° 0 mm 0 mps 750 mmHg 92%
    13:00 -15°C° 0 mm 0 mps 750 mmHg 91%
    14:00 -14°C° 0 mm 0 mps 750 mmHg 90%
    15:00 -15°C° 0 mm 0 mps 751 mmHg 92%
    16:00 -16°C° 0 mm 1 mps 751 mmHg 93%
    17:00 -17°C° 0 mm 1 mps 751 mmHg 95%
    18:00 -17°C° 0 mm 1 mps 751 mmHg 95%
    19:00 -17°C° 0 mm 1 mps 751 mmHg 95%
    20:00 -19°C° 0 mm 2 mps 751 mmHg 95%
    21:00 -19°C° 0 mm 2 mps 751 mmHg 95%
    22:00 -19°C° 0 mm 2 mps 751 mmHg 95%
    23:00 -19°C° 0 mm 2 mps 751 mmHg 95%

    29 January, Tuesday

    Time Temperature Precipitation Wind Pressure Humidity
    00:00 -18°C° 0 mm 2 mps 751 mmHg 95%
    01:00 -19°C° 0 mm 3 mps 751 mmHg 94%
    02:00 -18°C° 0 mm 3 mps 751 mmHg 94%
    03:00 -18°C° 0 mm 3 mps 751 mmHg 93%
    04:00 -17°C° 0 mm 3 mps 751 mmHg 93%
    05:00 -17°C° 0 mm 3 mps 751 mmHg 92%
    06:00 -17°C° 0 mm 3 mps 751 mmHg 91%
    07:00 -16°C° 0 mm 3 mps 751 mmHg 90%
    08:00 -17°C° 0 mm 4 mps 751 mmHg 90%
    09:00 -16°C° 0 mm 4 mps 751 mmHg 89%
    10:00 -16°C° 0 mm 4 mps 751 mmHg 88%
    11:00 -15°C° 0 mm 4 mps 750 mmHg 87%
    12:00 -14°C° 0 mm 4 mps 750 mmHg 88%
    13:00 -14°C° 0 mm 4 mps 750 mmHg 90%
    14:00 -12°C° 0 mm 4 mps 750 mmHg 91%
    15:00 -12°C° 0.1 mm 4 mps 749 mmHg 91%
    16:00 -11°C° 0.1 mm 4 mps 749 mmHg 91%
    17:00 -11°C° 0.1 mm 4 mps 749 mmHg 91%
    18:00 -11°C° 0 mm 4 mps 749 mmHg 91%
    19:00 -10°C° 0 mm 4 mps 749 mmHg 91%
    20:00 -10°C° 0 mm 4 mps 748 mmHg 91%
    21:00 -10°C° 0 mm 4 mps 748 mmHg 90%
    22:00 -9°C° 0 mm 4 mps 748 mmHg 90%
    23:00 -9°C° 0 mm 4 mps 748 mmHg 90%
    Show more